This demonstration page uses our WeatherBlox Daily Observations layout. Learn more.

Left ArrowRight Arrow

Hourly Observations for March 25, 2018

Temp ( °F °C ) Dew Point ( °F °C ) Humidity (%) Winds ( mph kmh ) Pressure ( in mb ) Visibility ( mi km ) Precip ( " mm )
12:54 am 00:54 Cloudy 34 1.1 29 -1.7 82 82 ESE 9 15 30.18 1022 10 16 0.00 0.00
1:54 am 01:54 Cloudy 34 1.1 29 -1.7 82 82 E 8 13 30.16 1021 10 16 0.00 0.00
2:20 am 02:20 Cloudy 34 1.1 29 -1.7 82 82 E 13 20 30.18 1022 10 16 0.00 0.00
2:54 am 02:54 Cloudy 33 0.6 29 -1.7 85 85 ESE 15 24 30.13 1020 8 13 0.00 0.00
3:31 am 03:31 Cloudy 33 0.6 29 -1.7 85 85 ESE 14 22 30.15 1021 8 13 0.00 0.00
3:46 am 03:46 Cloudy 33 0.6 29 -1.7 85 85 ESE 15 24 30.15 1021 8 13 0.00 0.00
3:54 am 03:54 Cloudy 33 0.6 29 -1.7 85 85 ESE 14 22 30.12 1020 8 13 0.00 0.00
4:54 am 04:54 Cloudy 33 0.6 28 -2.2 82 82 E 14 22 30.12 1020 9 14 0.00 0.00
5:54 am 05:54 Cloudy 33 0.6 28 -2.2 82 82 SE 10 17 30.12 1020 9 14 0.00 0.00
6:17 am 06:17 Cloudy 33 0.6 28 -2.2 82 82 ESE 15 24 30.15 1021 10 16 0.00 0.00
6:45 am 06:45 Cloudy 33 0.6 28 -2.2 82 82 SE 12 19 30.15 1021 10 16 0.00 0.00
6:54 am 06:54 Cloudy 33 0.6 28 -2.2 82 82 SE 9 15 30.13 1020 10 16 0.00 0.00
7:02 am 07:02 Cloudy 33 0.6 28 -2.2 82 82 SE 9 15 30.15 1021 10 16 0.00 0.00
7:45 am 07:45 Cloudy 33 0.6 28 -2.2 82 82 ESE 10 17 30.15 1021 10 16 0.00 0.00
7:54 am 07:54 Cloudy 33 0.6 28 -2.2 82 82 ESE 8 13 30.12 1020 10 16 0.00 0.00
8:54 am 08:54 Cloudy with Light Rain 33 0.6 28 -2.2 82 82 SE 13 20 30.12 1020 10 16 0.00 0.03
9:54 am 09:54 Cloudy with Light Rain 34 1.1 29 -1.7 82 82 SE 16 26 30.15 1021 9 14 0.00 0.03
10:54 am 10:54 Cloudy with Light Rain 34 1.1 30 -1.1 85 85 SE 12 19 30.14 1021 10 16 0.00 0.03
11:54 am 11:54 Cloudy 35 1.7 31 -0.6 85 85 SSE 8 13 30.14 1021 10 16 0.00 0.03
12:54 pm 12:54 Cloudy with Light Rain 36 2.2 32 0 86 86 SE 10 17 30.12 1020 10 16 0.01 0.25
1:54 pm 13:54 Cloudy 36 2.2 32 0 86 86 ESE 13 20 30.10 1019 10 16 0.00 0.03
2:29 pm 14:29 Cloudy 37 2.8 33 0.6 86 86 SE 14 22 30.12 1020 10 16 0.00 0.00
2:54 pm 14:54 Cloudy 38 3.3 33 0.6 83 83 ESE 9 15 30.07 1018 10 16 0.00 0.00
3:54 pm 15:54 Cloudy 38 3.3 33 0.6 83 83 SE 9 15 30.06 1018 10 16 0.00 0.00
4:54 pm 16:54 Cloudy 39 3.9 34 1.1 82 82 SE 10 17 30.05 1018 8 13 0.00 0.00
5:54 pm 17:54 Cloudy 39 3.9 34 1.1 82 82 E 8 13 30.04 1017 8 13 0.00 0.00
6:54 pm 18:54 Cloudy 40 4.4 34 1.1 79 79 ESE 10 17 30.03 1017 8 13 0.00 0.00
7:54 pm 19:54 Cloudy 40 4.4 35 1.7 83 83 E 8 13 30.04 1017 9 14 0.00 0.00
8:54 pm 20:54 Cloudy 40 4.4 35 1.7 83 83 E 8 13 30.04 1017 9 14 0.00 0.00
9:44 pm 21:44 Cloudy 40 4.4 35 1.7 83 83 E 10 17 30.06 1018 9 14 0.00 0.00
9:54 pm 21:54 Cloudy 40 4.4 35 1.7 83 83 ESE 13 20 30.06 1018 9 14 0.00 0.00
10:54 pm 22:54 Cloudy 40 4.4 35 1.7 83 83 E 13 20 30.06 1018 9 14 0.00 0.00
11:54 pm 23:54 Cloudy 40 4.4 35 1.7 83 83 ESE 9 15 30.06 1018 8 13 0.00 0.00

Powered by AerisWeather